FW8040 Weather Reports


time (UTC)temp
F
wind
direction
speed
knots
gust
knots
rain 1hr
in
rain 24hr
in
rain mn
in
humidity
%
barometer
mb
20260510190544 84 0 0.0 1.7 0.00 0.00 0.00 32 1013.4
20260510190049 84 0 0.0 0.9 0.00 0.00 0.00 33 1013.5
20260510185544 83 243 0.0 0.9 0.00 0.00 0.00 35 1013.6
20260510185044 83 0 0.0 0.9 0.00 0.00 0.00 34 1013.7
20260510184548 83 244 0.0 1.7 0.00 0.00 0.00 36 1013.6
20260510184047 82 0 0.0 1.7 0.00 0.00 0.00 34 1013.7
20260510183544 82 80 0.0 1.7 0.00 0.00 0.00 36 1013.9
20260510183047 83 80 0.0 0.9 0.00 0.00 0.00 34 1014.0
20260510182543 82 0 0.0 0.9 0.00 0.00 0.00 36 1014.0
20260510182043 82 0 0.0 1.7 0.00 0.00 0.00 36 1014.0
20260510181604 82 0 0.0 1.7 0.00 0.00 0.00 35 1014.1
20260510181046 82 0 0.0 0.9 0.00 0.00 0.00 35 1014.1
20260510180545 82 320 0.0 0.9 0.00 0.00 0.00 34 1014.2
20260510180103 82 231 0.0 0.9 0.00 0.00 0.00 37 1014.1
20260510175544 82 267 0.0 0.9 0.00 0.00 0.00 36 1014.2
20260510175046 82 326 0.0 0.9 0.00 0.00 0.00 37 1014.3
20260510174549 81 114 0.0 0.9 0.00 0.00 0.00 39 1014.2
20260510174044 81 0 0.0 0.9 0.00 0.00 0.00 37 1014.2
20260510173544 81 0 0.0 0.9 0.00 0.00 0.00 36 1014.2
20260510173051 80 0 0.0 0.9 0.00 0.00 0.00 36 1014.2
20260510172544 80 0 0.0 1.7 0.00 0.00 0.00 39 1014.3
20260510172044 80 0 0.0 1.7 0.00 0.00 0.00 37 1014.2
20260510171556 80 0 0.0 0.9 0.00 0.00 0.00 38 1014.3
20260510171043 80 0 0.0 0.9 0.00 0.00 0.00 39 1014.3
20260510170543 80 0 0.0 0.9 0.00 0.00 0.00 39 1014.3
20260510170048 80 288 0.0 0.9 0.00 0.00 0.00 39 1014.3
20260510165544 79 0 0.0 0.9 0.00 0.00 0.00 40 1014.2
20260510165044 79 0 0.0 1.7 0.00 0.00 0.00 42 1014.4
20260510164559 79 0 0.0 1.7 0.00 0.00 0.00 41 1014.4
20260510164044 79 90 0.0 0.9 0.00 0.00 0.00 40 1014.4
20260510163544 79 0 0.0 1.7 0.00 0.00 0.00 40 1014.4
20260510163052 79 0 0.0 1.7 0.00 0.00 0.00 38 1014.5
20260510162544 80 257 0.0 0.9 0.00 0.00 0.00 39 1014.5
20260510162045 79 0 0.0 0.9 0.00 0.00 0.00 42 1014.5
20260510161549 79 239 0.0 0.9 0.00 0.00 0.00 41 1014.6
20260510161044 79 0 0.0 0.9 0.00 0.00 0.00 45 1014.6
20260510160544 78 0 0.0 0.0 0.00 0.00 0.00 44 1014.6
20260510160049 78 0 0.0 0.9 0.00 0.00 0.00 43 1014.7
20260510155543 77 0 0.0 0.9 0.00 0.00 0.00 47 1014.8
20260510155044 77 0 0.0 0.9 0.00 0.00 0.00 48 1015.0
20260510154557 77 338 0.0 0.9 0.00 0.00 0.00 47 1015.1
20260510154044 77 0 0.0 0.9 0.00 0.00 0.00 51 1015.1
20260510153549 76 0 0.0 0.9 0.00 0.00 0.00 53 1015.2
20260510153053 76 0 0.0 0.9 0.00 0.00 0.00 52 1015.2
20260510152544 76 0 0.0 0.9 0.00 0.00 0.00 55 1015.1
20260510152047 76 0 0.0 0.9 0.00 0.00 0.00 55 1015.1
20260510151549 75 0 0.0 0.9 0.00 0.00 0.00 57 1015.0
20260510151044 75 0 0.0 0.9 0.00 0.00 0.00 58 1014.9
20260510150544 75 0 0.0 0.9 0.00 0.00 0.00 60 1014.9
20260510150120 74 0 0.0 0.0 0.00 0.00 0.00 60 1014.9
20260510145544 74 0 0.0 0.0 0.00 0.00 0.00 59 1014.9
20260510145044 74 312 0.0 0.0 0.00 0.00 0.00 60 1015.0
20260510144603 73 0 0.0 0.9 0.00 0.00 0.00 61 1014.9
20260510144044 73 325 0.0 0.9 0.00 0.00 0.00 61 1014.9
20260510143544 73 0 0.0 0.9 0.00 0.00 0.00 62 1014.9
20260510143107 73 0 0.0 0.9 0.00 0.00 0.00 64 1014.9
20260510142543 73 0 0.0 0.9 0.00 0.00 0.00 63 1014.7
20260510142042 72 0 0.0 0.9 0.00 0.00 0.00 63 1014.8
20260510141551 72 0 0.0 0.9 0.00 0.00 0.00 65 1014.7
20260510141043 72 0 0.0 0.9 0.00 0.00 0.00 66 1014.7
20260510140542 72 0 0.0 0.9 0.00 0.00 0.00 67 1014.7
20260510140049 71 328 0.0 0.9 0.00 0.00 0.00 67 1014.8
20260510135542 71 0 0.0 0.9 0.00 0.00 0.00 69 1014.7
20260510135042 71 0 0.0 0.9 0.00 0.00 0.00 68 1014.7
20260510134554 70 0 0.0 0.9 0.00 0.00 0.00 69 1014.7
20260510134044 70 0 0.0 0.9 0.00 0.00 0.00 70 1014.7
20260510133545 70 0 0.0 0.9 0.00 0.00 0.00 71 1014.6
20260510133049 69 0 0.0 0.0 0.00 0.00 0.00 73 1014.5
20260510132543 69 0 0.0 0.0 0.00 0.00 0.00 75 1014.6
20260510132042 69 0 0.0 0.0 0.00 0.00 0.00 76 1014.7
20260510131552 68 0 0.0 0.0 0.00 0.00 0.00 78 1014.7
20260510131043 68 0 0.0 0.0 0.00 0.00 0.00 82 1014.4
20260510130544 67 0 0.0 0.0 0.00 0.00 0.00 84 1014.3
20260510130052 67 0 0.0 0.0 0.00 0.00 0.00 84 1014.2
20260510125540 67 0 0.0 0.0 0.00 0.00 0.00 86 1014.1
20260510125042 66 0 0.0 0.0 0.00 0.00 0.00 86 1014.0
20260510124559 66 0 0.0 0.9 0.00 0.00 0.00 87 1014.1
20260510124042 65 0 0.0 0.9 0.00 0.00 0.00 89 1014.2
20260510123542 64 0 0.0 0.0 0.00 0.00 0.00 91 1014.1
20260510123057 64 0 0.0 0.0 0.00 0.00 0.00 92 1014.0
20260510122541 63 0 0.0 0.0 0.00 0.00 0.00 93 1014.1
20260510122042 62 0 0.0 0.0 0.00 0.00 0.00 94 1014.0
20260510121543 62 0 0.0 0.0 0.00 0.00 0.00 94 1013.9
20260510121042 62 0 0.0 0.0 0.00 0.00 0.00 94 1013.8
20260510120544 62 0 0.0 0.0 0.00 0.00 0.00 94 1013.8
20260510120049 61 0 0.0 0.0 0.00 0.00 0.00 94 1013.8
20260510115543 61 0 0.0 0.0 0.00 0.00 0.00 95 1013.8
20260510115043 61 0 0.0 0.0 0.00 0.00 0.00 95 1013.7
20260510114550 61 0 0.0 0.0 0.00 0.00 0.00 95 1013.7
20260510114043 61 0 0.0 0.0 0.00 0.00 0.00 95 1013.6
20260510113542 61 0 0.0 0.0 0.00 0.00 0.00 95 1013.5
20260510113046 60 0 0.0 0.0 0.00 0.00 0.00 95 1013.5
20260510112545 60 0 0.0 0.0 0.00 0.00 0.00 95 1013.4
20260510112043 60 0 0.0 0.0 0.00 0.00 0.00 95 1013.4
20260510111601 60 0 0.0 0.0 0.00 0.00 0.00 94 1013.3
20260510111045 60 0 0.0 0.0 0.00 0.00 0.00 94 1013.3
20260510110544 60 0 0.0 0.0 0.00 0.00 0.00 94 1013.2
20260510110057 60 0 0.0 0.0 0.00 0.00 0.00 94 1013.2
20260510105546 60 0 0.0 0.0 0.00 0.00 0.00 94 1013.1
20260510105046 60 0 0.0 0.0 0.00 0.00 0.00 94 1013.0
20260510104607 60 0 0.0 0.0 0.00 0.00 0.00 94 1013.1
20260510104044 60 0 0.0 0.0 0.00 0.00 0.00 94 1013.1
20260510103546 60 0 0.0 0.0 0.00 0.00 0.00 94 1013.0
20260510103105 60 0 0.0 0.0 0.00 0.00 0.00 94 1012.8
20260510102548 60 0 0.0 0.0 0.00 0.00 0.00 94 1012.7
20260510102049 60 0 0.0 0.0 0.00 0.00 0.00 94 1012.5
20260510101559 60 0 0.0 0.0 0.00 0.00 0.00 94 1012.3
20260510101045 60 0 0.0 0.0 0.00 0.00 0.00 94 1012.2
20260510100544 60 0 0.0 0.0 0.00 0.00 0.00 94 1012.2
20260510100058 60 0 0.0 0.0 0.00 0.00 0.00 94 1012.1
20260510095544 60 0 0.0 0.0 0.00 0.00 0.00 94 1012.0
20260510095043 60 0 0.0 0.0 0.00 0.00 0.00 94 1011.9
20260510094556 60 0 0.0 0.0 0.00 0.00 0.00 94 1011.9
20260510094045 60 0 0.0 0.0 0.00 0.00 0.00 94 1011.7
20260510093545 60 0 0.0 0.0 0.00 0.00 0.00 94 1011.8
20260510093120 60 0 0.0 0.0 0.00 0.00 0.00 94 1011.7
20260510092545 60 0 0.0 0.0 0.00 0.00 0.00 94 1011.7
20260510092046 60 0 0.0 0.0 0.00 0.00 0.00 94 1011.7
20260510091558 60 0 0.0 0.0 0.00 0.00 0.00 94 1011.7
20260510091044 60 0 0.0 0.0 0.00 0.00 0.00 94 1011.6
20260510090544 60 0 0.0 0.0 0.00 0.00 0.00 94 1011.6
20260510090053 60 0 0.0 0.0 0.00 0.00 0.00 94 1011.5
20260510085544 60 0 0.0 0.0 0.00 0.00 0.00 94 1011.6
20260510085047 60 0 0.0 0.0 0.00 0.00 0.00 94 1011.6
20260510084554 60 0 0.0 0.0 0.00 0.00 0.00 94 1011.4
20260510084044 60 0 0.0 0.0 0.00 0.00 0.00 94 1011.4
20260510083544 60 0 0.0 0.0 0.00 0.00 0.00 94 1011.4
20260510083105 60 0 0.0 0.0 0.00 0.00 0.00 94 1011.3
20260510082543 60 0 0.0 0.0 0.00 0.00 0.00 94 1011.2
20260510082044 60 0 0.0 0.0 0.00 0.00 0.00 94 1011.3
20260510081556 60 0 0.0 0.0 0.00 0.00 0.00 94 1011.3
20260510081044 60 0 0.0 0.0 0.00 0.00 0.00 94 1011.3
20260510080545 60 0 0.0 0.0 0.00 0.00 0.00 94 1011.1
20260510080057 60 0 0.0 0.0 0.00 0.00 0.00 94 1011.2
20260510075543 60 0 0.0 0.0 0.00 0.00 0.00 93 1011.2
20260510075042 60 0 0.0 0.0 0.00 0.00 0.00 93 1011.2
20260510074549 60 0 0.0 0.0 0.00 0.00 0.00 93 1011.2
20260510074040 60 0 0.0 0.0 0.00 0.00 0.00 93 1011.1
20260510073540 61 0 0.0 0.0 0.00 0.00 0.00 93 1011.1
20260510073056 61 0 0.0 0.0 0.00 0.00 0.00 93 1010.9
20260510072542 61 0 0.0 0.0 0.00 0.00 0.00 93 1010.9
20260510072043 61 0 0.0 0.0 0.00 0.00 0.00 93 1011.0
20260510071547 61 0 0.0 0.0 0.00 0.00 0.00 94 1011.0
20260510071043 61 0 0.0 0.0 0.00 0.00 0.00 94 1011.1
20260510070542 61 0 0.0 0.0 0.00 0.00 0.00 94 1011.2
20260510070047 61 0 0.0 0.0 0.00 0.00 0.00 94 1011.2
20260510065544 61 0 0.0 0.0 0.00 0.00 0.00 94 1011.3
20260510065042 61 0 0.0 0.0 0.00 0.00 0.00 94 1011.3
20260510064559 61 0 0.0 0.0 0.00 0.00 0.00 94 1011.3
20260510064042 61 0 0.0 0.0 0.00 0.00 0.00 94 1011.2
20260510063542 61 0 0.0 0.0 0.00 0.00 0.00 94 1011.2
20260510063051 61 0 0.0 0.0 0.00 0.00 0.00 94 1011.2
20260510062542 61 0 0.0 0.0 0.00 0.00 0.00 94 1011.0
20260510062044 61 0 0.0 0.0 0.00 0.00 0.00 94 1010.8
20260510061550 61 0 0.0 0.0 0.00 0.00 0.00 94 1010.9
20260510061043 61 0 0.0 0.0 0.00 0.00 0.00 94 1011.1
20260510060543 61 0 0.0 0.0 0.00 0.00 0.00 94 1011.1
20260510060049 61 0 0.0 0.0 0.00 0.00 0.00 93 1011.2
20260510055542 61 0 0.0 0.0 0.00 0.00 0.00 93 1011.3
20260510055044 61 0 0.0 0.0 0.00 0.00 0.00 93 1011.3
20260510054552 61 0 0.0 0.0 0.00 0.00 0.00 93 1011.3
20260510054044 61 0 0.0 0.0 0.00 0.00 0.00 93 1011.3
20260510053544 61 0 0.0 0.0 0.00 0.00 0.00 93 1011.4
20260510053050 61 0 0.0 0.0 0.00 0.00 0.00 93 1011.5
20260510052542 61 0 0.0 0.0 0.00 0.00 0.00 93 1011.5
20260510052042 61 0 0.0 0.0 0.00 0.00 0.00 93 1011.6
20260510051604 61 0 0.0 0.0 0.00 0.00 0.00 93 1011.5
20260510051044 61 0 0.0 0.0 0.00 0.00 0.00 93 1011.6
20260510050544 61 0 0.0 0.0 0.00 0.00 0.00 93 1011.5
20260510050053 61 0 0.0 0.0 0.00 0.00 0.00 92 1011.4
20260510045543 61 0 0.0 0.0 0.00 0.00 0.00 92 1011.4
20260510045043 61 0 0.0 0.0 0.00 0.00 0.00 92 1011.7
20260510044558 62 0 0.0 0.0 0.00 0.00 0.00 92 1011.7
20260510044043 62 0 0.0 0.0 0.00 0.00 0.00 92 1011.7
20260510043543 62 0 0.0 0.0 0.00 0.00 0.00 92 1011.6
20260510043048 62 0 0.0 0.0 0.00 0.00 0.00 92 1011.7
20260510042543 62 0 0.0 0.0 0.00 0.00 0.00 92 1011.7
20260510042042 62 0 0.0 0.0 0.00 0.00 0.00 92 1011.7
20260510041549 62 0 0.0 0.0 0.00 0.00 0.00 91 1011.7
20260510041042 62 0 0.0 0.0 0.00 0.00 0.00 91 1011.7
20260510040542 62 0 0.0 0.0 0.00 0.00 0.00 91 1011.7
20260510040051 62 0 0.0 0.0 0.00 0.00 0.00 91 1011.6
20260510035542 62 0 0.0 0.0 0.00 0.00 0.00 91 1011.6
20260510035047 63 0 0.0 0.0 0.00 0.00 0.00 91 1011.5
20260510034547 63 0 0.0 0.0 0.00 0.00 0.00 91 1011.5
20260510034043 63 0 0.0 0.0 0.00 0.00 0.00 90 1011.6
20260510033542 63 0 0.0 0.0 0.00 0.00 0.00 90 1011.6
20260510033059 63 0 0.0 0.0 0.00 0.00 0.00 90 1011.5
20260510032545 63 0 0.0 0.0 0.00 0.00 0.00 90 1011.4
20260510032043 63 0 0.0 0.0 0.00 0.00 0.00 90 1011.3
20260510031555 63 0 0.0 0.0 0.00 0.00 0.00 90 1011.2
20260510031043 63 0 0.0 0.0 0.00 0.00 0.00 89 1011.3
20260510030543 63 0 0.0 0.0 0.00 0.00 0.00 89 1011.3
20260510025543 63 0 0.0 0.0 0.00 0.00 0.00 88 1011.2
20260510025043 63 0 0.0 0.0 0.00 0.00 0.00 88 1011.2
20260510024550 63 0 0.0 0.0 0.00 0.00 0.00 88 1011.3
20260510024043 63 0 0.0 0.0 0.00 0.00 0.00 88 1011.2
20260510023543 64 0 0.0 0.0 0.00 0.00 0.00 88 1011.1
20260510023052 64 0 0.0 0.0 0.00 0.00 0.00 88 1011.2
20260510022547 64 0 0.0 0.0 0.00 0.00 0.00 87 1011.1
20260510022044 64 0 0.0 0.0 0.00 0.00 0.00 87 1011.1
20260510021558 64 0 0.0 0.0 0.00 0.00 0.00 87 1011.1
20260510021042 64 0 0.0 0.0 0.00 0.00 0.00 87 1011.0
20260510020543 64 0 0.0 0.0 0.00 0.00 0.00 87 1011.0
20260510020053 64 0 0.0 0.0 0.00 0.00 0.00 87 1011.0
20260510015542 65 0 0.0 0.0 0.00 0.00 0.00 86 1011.0
20260510015042 65 0 0.0 0.0 0.00 0.00 0.00 86 1011.0
20260510014556 65 0 0.0 0.0 0.00 0.00 0.00 86 1010.8
20260510014043 65 0 0.0 0.0 0.00 0.00 0.00 86 1010.7
20260510013543 65 0 0.0 0.0 0.00 0.00 0.00 86 1010.6
20260510013054 65 0 0.0 0.0 0.00 0.00 0.00 85 1010.6
20260510012546 65 0 0.0 0.0 0.00 0.00 0.00 85 1010.5
20260510012045 65 0 0.0 0.0 0.00 0.00 0.00 85 1010.5
20260510011552 66 0 0.0 0.0 0.00 0.00 0.00 85 1010.4
20260510011042 66 0 0.0 0.0 0.00 0.00 0.00 84 1010.3
20260510010547 66 0 0.0 0.0 0.00 0.00 0.00 84 1010.4
20260510010050 66 0 0.0 0.0 0.00 0.00 0.00 83 1010.3
20260510005544 67 0 0.0 0.0 0.00 0.00 0.00 83 1010.2
20260510005043 67 0 0.0 0.0 0.00 0.00 0.00 82 1010.2
20260510004553 67 0 0.0 0.0 0.00 0.00 0.00 82 1010.2
20260510004042 67 0 0.0 0.0 0.00 0.00 0.00 81 1010.1
20260510003543 67 0 0.0 0.0 0.00 0.00 0.00 81 1010.1
20260510003054 68 0 0.0 0.0 0.00 0.00 0.00 80 1010.2
20260510002542 68 0 0.0 0.0 0.00 0.00 0.00 80 1010.1
20260510002042 68 0 0.0 0.0 0.00 0.00 0.00 80 1010.1
20260510001548 69 0 0.0 0.0 0.00 0.00 0.00 79 1010.2
20260510001043 69 0 0.0 0.0 0.00 0.00 0.00 78 1010.1
20260510000543 69 0 0.0 0.0 0.00 0.00 0.00 78 1010.0
20260510000050 69 0 0.0 0.0 0.00 0.00 0.00 77 1010.0
20260509235543 70 0 0.0 0.0 0.00 0.00 0.00 77 1010.0
20260509235042 70 0 0.0 0.0 0.00 0.00 0.00 76 1010.0
20260509234555 70 0 0.0 0.0 0.00 0.00 0.00 75 1009.9
20260509234044 71 0 0.0 0.0 0.00 0.00 0.00 75 1009.7
20260509233546 71 0 0.0 0.0 0.00 0.00 0.00 74 1009.6
20260509233050 71 0 0.0 0.0 0.00 0.00 0.00 74 1009.5
20260509232547 71 0 0.0 0.0 0.00 0.00 0.00 74 1009.7
20260509232042 71 0 0.0 0.0 0.00 0.00 0.00 73 1009.7
20260509231604 71 0 0.0 0.0 0.00 0.00 0.00 73 1009.5
20260509231043 71 0 0.0 0.0 0.00 0.00 0.00 73 1009.5
20260509230542 72 0 0.0 0.0 0.00 0.00 0.00 73 1009.5
20260509230058 72 0 0.0 0.0 0.00 0.00 0.00 73 1009.5
20260509225543 72 0 0.0 0.0 0.00 0.00 0.00 73 1009.4
20260509225048 72 0 0.0 0.0 0.00 0.00 0.00 72 1009.2
20260509224558 72 0 0.0 0.0 0.00 0.00 0.00 72 1009.2
20260509224047 72 0 0.0 0.0 0.00 0.00 0.00 72 1009.3
20260509223544 72 0 0.0 0.0 0.00 0.00 0.00 72 1009.4
20260509223053 72 0 0.0 0.0 0.00 0.00 0.00 72 1009.3
20260509222545 72 0 0.0 0.0 0.00 0.00 0.00 72 1009.5
20260509222042 72 0 0.0 0.0 0.00 0.00 0.00 72 1009.5
20260509221554 72 0 0.0 0.0 0.00 0.00 0.00 71 1009.6
20260509221043 72 0 0.0 0.0 0.00 0.00 0.00 71 1009.5
20260509220543 72 0 0.0 0.9 0.00 0.00 0.00 71 1009.5
20260509220100 72 0 0.0 0.9 0.00 0.00 0.00 72 1009.5
20260509215543 72 0 0.0 0.9 0.00 0.00 0.00 72 1009.5
20260509215042 72 0 0.0 0.0 0.00 0.00 0.00 72 1009.4
20260509214551 72 0 0.0 0.0 0.00 0.00 0.00 71 1009.3
20260509214043 72 0 0.0 0.9 0.00 0.00 0.00 71 1009.3
20260509213543 72 0 0.0 0.9 0.00 0.00 0.00 71 1009.3
20260509213126 72 0 0.0 0.0 0.00 0.00 0.00 71 1009.3
20260509212542 72 0 0.0 0.9 0.00 0.00 0.00 72 1009.3
20260509212043 72 0 0.0 0.9 0.00 0.00 0.00 71 1009.1
20260509211552 72 0 0.0 0.9 0.00 0.00 0.00 70 1009.2
20260509211044 71 0 0.0 0.9 0.00 0.00 0.00 71 1009.1
20260509210544 71 0 0.0 0.9 0.00 0.00 0.00 71 1009.1
20260509210105 71 0 0.0 0.9 0.00 0.00 0.00 71 1009.2
20260509205542 71 0 0.0 0.9 0.00 0.00 0.00 71 1009.2
20260509205042 71 240 0.0 0.9 0.00 0.00 0.00 71 1009.2
20260509204555 71 0 0.0 0.9 0.00 0.00 0.00 71 1009.3
20260509204044 71 0 0.0 0.9 0.00 0.00 0.00 71 1009.2
20260509203543 71 0 0.0 0.9 0.00 0.00 0.00 70 1009.1
20260509203048 71 0 0.0 0.9 0.00 0.00 0.00 70 1009.3
20260509202543 71 244 0.0 0.9 0.00 0.00 0.00 70 1009.3
20260509202044 71 0 0.0 0.9 0.00 0.00 0.00 71 1009.2
20260509201548 71 0 0.0 0.0 0.00 0.00 0.00 71 1009.3
20260509201045 71 0 0.0 0.9 0.00 0.00 0.00 71 1009.2
20260509200543 70 0 0.0 0.9 0.00 0.00 0.00 71 1009.3
20260509200103 70 0 0.0 0.9 0.00 0.00 0.00 70 1009.4
20260509195542 71 0 0.0 0.0 0.00 0.00 0.00 70 1009.5
20260509195045 70 0 0.0 0.0 0.00 0.00 0.00 70 1009.5
20260509194555 70 0 0.0 0.9 0.00 0.00 0.00 70 1009.6
20260509194044 70 0 0.0 0.9 0.00 0.00 0.00 69 1009.6
20260509193543 71 0 0.0 0.9 0.00 0.00 0.00 69 1009.7
20260509193049 71 229 0.0 0.9 0.00 0.00 0.00 68 1009.8
20260509192547 71 0 0.0 0.9 0.00 0.00 0.00 67 1009.8
20260509192043 72 250 0.0 0.9 0.00 0.00 0.00 66 1009.8
20260509191549 72 0 0.0 1.7 0.00 0.00 0.00 65 1009.7
20260509191043 73 245 0.0 1.7 0.00 0.00 0.00 64 1009.7